Weather History for Lordsburg, NM

Change the Weather History Date:

Wednesday, October 23, 2013

  Actual Average Record
Temperature  
Mean Temperature 64 °F -  
Max Temperature 78 °F 73 °F 78 °F (2013)
Min Temperature 50 °F 42 °F 44 °F (2014)
Degree Days  
Heating Degree Days 1    
Growing Degree Days 14 (Base 50)    
Moisture  
Dew Point 29 °F    
Average Humidity 30    
Maximum Humidity 43    
Minimum Humidity 18    
Precipitation  
Precipitation 0.00 in - - ()
Sea Level Pressure  
Sea Level Pressure 30.12 in    
Wind  
Wind Speed 11 mph (SE)    
Max Wind Speed 21 mph    
Max Gust Speed 29 mph    
Visibility 10 miles    
Events      
Averages and records for this station are not official NWS values.
T = Trace of Precipitation, MM = Missing Value Source: NWS Daily Summary

Daily Weather History Graph

Daily Weather History Graph

Search for Another Location

Airport:

Trip Planner

Search our weather history database for the weather conditions in past years. The results will help you decide how hot, cold, wet, or windy it might be!

Date:

Astronomy

Oct. 23, 2013 Rise Set
Actual Time 7:24 AM MDT 6:32 PM MDT
Civil Twilight 6:59 AM MDT 6:57 PM MDT
Nautical Twilight 6:31 AM MDT 7:26 PM MDT
Astronomical Twilight 6:02 AM MDT 7:54 PM MDT
Moon 10:14 PM MDT (10/23) 11:35 AM MDT (10/23)
Length of Visible Light 11h 57m
Length of Day
11h 08m
Waning Gibbous, 79% of the Moon is Illuminated
Oct 23
Waning Gibbous
Oct 26
Last Quarter
Nov 3
New
Nov 9
First Quarter
Nov 17
Full

Hourly Weather History & Observations

Time (MDT) Temp. Dew Point Humidity Pressure Visibility Wind Dir Wind Speed Gust Speed Precip Events Conditions
12:15 AM 50.0 °F 24.8 °F 37% 30.16 in 10.0 mi South 9.2 mph - N/A   Clear
12:35 AM 51.8 °F 24.8 °F 35% 30.15 in 10.0 mi South 9.2 mph - N/A   Clear
12:55 AM 51.8 °F 24.8 °F 35% 30.15 in 10.0 mi South 8.1 mph - N/A   Clear
1:15 AM 51.8 °F 24.8 °F 35% 30.15 in 10.0 mi South 8.1 mph - N/A   Clear
1:35 AM 51.8 °F 24.8 °F 35% 30.15 in 10.0 mi South 8.1 mph - N/A   Clear
1:55 AM 50.0 °F 24.8 °F 37% 30.15 in 10.0 mi South 9.2 mph - N/A   Clear
2:15 AM 50.0 °F 24.8 °F 37% 30.15 in 10.0 mi South 6.9 mph - N/A   Clear
2:35 AM 50.0 °F 26.6 °F 40% 30.15 in 10.0 mi South 9.2 mph - N/A   Clear
2:55 AM 50.0 °F 26.6 °F 40% 30.14 in 10.0 mi SSE 10.4 mph - N/A   Clear
3:15 AM 51.8 °F 26.6 °F 38% 30.14 in 10.0 mi SSE 11.5 mph - N/A   Clear
3:35 AM 50.0 °F 26.6 °F 40% 30.14 in 10.0 mi SSE 10.4 mph - N/A   Clear
3:55 AM 50.0 °F 26.6 °F 40% 30.14 in 10.0 mi South 10.4 mph - N/A   Clear
4:15 AM 50.0 °F 26.6 °F 40% 30.14 in 10.0 mi South 9.2 mph - N/A   Clear
4:35 AM 51.8 °F 26.6 °F 38% 30.14 in 10.0 mi SSE 9.2 mph - N/A   Clear
4:55 AM 50.0 °F 26.6 °F 40% 30.13 in 10.0 mi SSE 9.2 mph - N/A   Clear
5:15 AM 50.0 °F 26.6 °F 40% 30.13 in 10.0 mi SSE 8.1 mph - N/A   Clear
5:35 AM 50.0 °F 26.6 °F 40% 30.13 in 10.0 mi South 8.1 mph - N/A   Clear
5:55 AM 50.0 °F 26.6 °F 40% 30.14 in 10.0 mi SSE 10.4 mph - N/A   Clear
6:15 AM 50.0 °F 26.6 °F 40% 30.14 in 10.0 mi SSE 11.5 mph - N/A   Clear
6:35 AM 51.8 °F 26.6 °F 38% 30.14 in 10.0 mi SSE 10.4 mph - N/A   Clear
6:55 AM 50.0 °F 26.6 °F 40% 30.14 in 10.0 mi SSE 8.1 mph - N/A   Clear
7:15 AM 50.0 °F 26.6 °F 40% 30.15 in 10.0 mi SSE 10.4 mph - N/A   Clear
7:35 AM 50.0 °F 28.4 °F 43% 30.15 in 10.0 mi SSE 11.5 mph - N/A   Clear
7:55 AM 51.8 °F 28.4 °F 41% 30.15 in 10.0 mi SSE 10.4 mph - N/A   Clear
8:15 AM 51.8 °F 28.4 °F 41% 30.15 in 10.0 mi SSE 10.4 mph - N/A   Clear
8:35 AM 53.6 °F 28.4 °F 38% 30.15 in 10.0 mi SSE 11.5 mph - N/A   Clear
8:55 AM 55.4 °F 28.4 °F 36% 30.16 in 10.0 mi SSE 12.7 mph - N/A   Clear
9:15 AM 59.0 °F 28.4 °F 31% 30.16 in 10.0 mi SSE 12.7 mph - N/A   Clear
9:35 AM 60.8 °F 30.2 °F 31% 30.16 in 10.0 mi SE 15.0 mph 19.6 mph N/A   Clear
9:55 AM 62.6 °F 30.2 °F 30% 30.17 in 10.0 mi SE 15.0 mph - N/A   Clear
10:15 AM 68.0 °F 30.2 °F 24% 30.16 in 10.0 mi ESE 19.6 mph 25.3 mph N/A   Clear
10:35 AM 68.0 °F 30.2 °F 24% 30.16 in 10.0 mi ESE 19.6 mph 28.8 mph N/A   Clear
10:55 AM 68.0 °F 30.2 °F 24% 30.16 in 10.0 mi ESE 20.7 mph 25.3 mph N/A   Clear
11:15 AM 69.8 °F 30.2 °F 23% 30.17 in 10.0 mi ESE 18.4 mph 27.6 mph N/A   Clear
11:35 AM 69.8 °F 30.2 °F 23% 30.16 in 10.0 mi ESE 17.3 mph 24.2 mph N/A   Clear
11:55 AM 71.6 °F 30.2 °F 22% 30.16 in 10.0 mi ESE 19.6 mph 25.3 mph N/A   Clear
12:15 PM 71.6 °F 30.2 °F 22% 30.15 in 10.0 mi ESE 16.1 mph 26.5 mph N/A   Clear
12:35 PM 71.6 °F 32.0 °F 23% 30.14 in 10.0 mi ESE 18.4 mph - N/A   Clear
12:55 PM 73.4 °F 32.0 °F 22% 30.13 in 10.0 mi ESE 17.3 mph - N/A   Clear
1:15 PM 73.4 °F 32.0 °F 22% 30.12 in 10.0 mi East 19.6 mph 25.3 mph N/A   Clear
1:35 PM 73.4 °F 32.0 °F 22% 30.10 in 10.0 mi ESE 18.4 mph 25.3 mph N/A   Clear
1:55 PM 75.2 °F 32.0 °F 21% 30.10 in 10.0 mi ESE 18.4 mph 24.2 mph N/A   Clear
2:15 PM 75.2 °F 32.0 °F 21% 30.08 in 10.0 mi ESE 18.4 mph 24.2 mph N/A   Clear
2:35 PM 77.0 °F 32.0 °F 19% 30.08 in 10.0 mi ESE 15.0 mph 20.7 mph N/A   Clear
2:55 PM 77.0 °F 32.0 °F 19% 30.08 in 10.0 mi ESE 13.8 mph 23.0 mph N/A   Clear
3:15 PM 77.0 °F 32.0 °F 19% 30.07 in 10.0 mi ESE 9.2 mph 19.6 mph N/A   Clear
3:35 PM 77.0 °F 32.0 °F 19% 30.07 in 10.0 mi ESE 13.8 mph 21.9 mph N/A   Clear
3:55 PM 77.0 °F 32.0 °F 19% 30.06 in 10.0 mi East 12.7 mph 21.9 mph N/A   Clear
4:15 PM 78.8 °F 32.0 °F 18% 30.06 in 10.0 mi ESE 13.8 mph 18.4 mph N/A   Clear
4:35 PM 77.0 °F 32.0 °F 19% 30.06 in 10.0 mi ESE 13.8 mph 19.6 mph N/A   Clear
4:55 PM 77.0 °F 32.0 °F 19% 30.06 in 10.0 mi ESE 11.5 mph 18.4 mph N/A   Clear
5:15 PM 77.0 °F 32.0 °F 19% 30.05 in 10.0 mi East 11.5 mph 17.3 mph N/A   Clear
5:35 PM 73.4 °F 32.0 °F 22% 30.05 in 10.0 mi ESE 11.5 mph - N/A   Clear
5:55 PM 73.4 °F 32.0 °F 22% 30.06 in 10.0 mi East 11.5 mph - N/A   Clear
6:15 PM 73.4 °F 32.0 °F 22% 30.06 in 10.0 mi ESE 8.1 mph - N/A   Clear
6:35 PM 71.6 °F 32.0 °F 23% 30.06 in 10.0 mi ESE 9.2 mph - N/A   Clear
6:55 PM 69.8 °F 32.0 °F 25% 30.06 in 10.0 mi East 8.1 mph - N/A   Clear
7:15 PM 69.8 °F 32.0 °F 25% 30.07 in 10.0 mi ESE 8.1 mph - N/A   Clear
7:35 PM 68.0 °F 30.2 °F 24% 30.07 in 10.0 mi East 8.1 mph - N/A   Clear
7:55 PM 66.2 °F 30.2 °F 26% 30.07 in 10.0 mi ESE 6.9 mph - N/A   Clear
8:15 PM 64.4 °F 30.2 °F 28% 30.08 in 10.0 mi ESE 5.8 mph - N/A   Clear
8:35 PM 62.6 °F 30.2 °F 30% 30.08 in 10.0 mi ESE 6.9 mph - N/A   Clear
8:55 PM 60.8 °F 30.2 °F 31% 30.08 in 10.0 mi South 5.8 mph - N/A   Clear
9:15 PM 60.8 °F 30.2 °F 31% 30.09 in 10.0 mi SSE 8.1 mph - N/A   Clear
9:35 PM 60.8 °F 30.2 °F 31% 30.09 in 10.0 mi SE 8.1 mph - N/A   Clear
9:55 PM 59.0 °F 30.2 °F 34% 30.10 in 10.0 mi SSE 8.1 mph - N/A   Clear
10:15 PM 59.0 °F 30.2 °F 34% 30.10 in 10.0 mi SSE 6.9 mph - N/A   Clear
10:35 PM 59.0 °F 30.2 °F 34% 30.10 in 10.0 mi SSE 6.9 mph - N/A   Clear
10:55 PM 59.0 °F 30.2 °F 34% 30.10 in 10.0 mi South 8.1 mph - N/A   Clear
11:15 PM 59.0 °F 30.2 °F 34% 30.10 in 10.0 mi SSE 10.4 mph - N/A   Clear
11:35 PM 60.8 °F 30.2 °F 31% 30.10 in 10.0 mi SSE 9.2 mph - N/A   Clear
11:55 PM 59.0 °F 30.2 °F 34% 30.10 in 10.0 mi SSE 10.4 mph - N/A   Clear